Home > Weather > Bellingham > Past weeks

Flag for U.S.A. Weather for the Past 2 Weeks in Bellingham, Washington, U.S.A.

Now
48 °F

Overcast.


Feels Like: 48 °F
Forecast: 47 / 54 °F
Wind: No wind

Location: Bellingham International Airport

Current Time: Feb 12, 2016 at 6:28:03 AM

Latest Report: Feb 12, 2016 at 5:53 AM


Visibility: 10 mi

Pressure: 30.05 "Hg

Humidity: 93%

Dew point: 46 °F

Location of BellinghamLocation

Historic Weather in Bellingham — Graph

°F

Bellingham Temperature Yesterday

Maximum temperature yesterday: 52 °F (at 12:53 PM)
Minimum temperature yesterday: 37 °F (at 1:04 AM)
Average temperature yesterday: 46 °F

High & Low Weather Summary for the Past Weeks

 TemperatureHumidityPressure
High60 °F (Feb 9, 1:53 PM)100% (Feb 7, 6:53 AM)30.62 "Hg (Feb 7, 6:53 AM)
Low32 °F (Feb 7, 5:53 AM)33% (Feb 5, 1:53 PM)29.61 "Hg (Jan 29, 12:53 PM)
Average44 °F82%30.17 "Hg
* Reported Jan 28 4:53 AM — Feb 12 4:53 AM, Bellingham, Weather by CustomWeather, © 2016

Note: Actual official high and low records may vary slightly from our data, if they occured in-between our weather recording intervals... More about our weather records

Advertising

Bellingham Weather History for the Previous 24 Hours

 ConditionsComfort  
Time TempWeatherWind HumidityBarometerVisibility
4:53 AM
Fri, Feb 12
48 °FOvercast.5 mph93%30.06 "Hg10 mi
3:53 AM47 °FOvercast.No wind97%30.07 "Hg10 mi
2:53 AM48 °FLight rain. Overcast.3 mph93%30.08 "Hg10 mi
1:53 AM48 °FLight rain. Overcast.No wind96%30.07 "Hg8 mi
12:53 AM48 °FRain. Overcast.5 mph93%30.06 "Hg7 mi
11:53 PM
Thu, Feb 11
48 °FLight rain. Overcast.6 mph93%30.07 "Hg10 mi
10:53 PM49 °FLight rain. Overcast.6 mph90%30.07 "Hg10 mi
9:53 PM48 °FOvercast.6 mph93%30.08 "Hg10 mi
8:53 PM48 °FLight rain. Overcast.6 mph93%30.09 "Hg10 mi
7:53 PM48 °FLight rain. Overcast.3 mph93%30.10 "Hg10 mi
6:53 PM48 °FLight rain. Mostly cloudy.8 mph93%30.11 "Hg10 mi
5:53 PM49 °FLight rain. Overcast.9 mph86%30.11 "Hg10 mi
4:53 PM50 °FLight rain. Mostly cloudy.8 mph83%30.11 "Hg7 mi
3:53 PM50 °FLight rain. Overcast.8 mph83%30.12 "Hg10 mi
2:53 PM51 °FLight rain. Overcast.6 mph74%30.12 "Hg10 mi
1:53 PM52 °FLight rain. Overcast.7 mph69%30.13 "Hg10 mi
12:53 PM52 °FOvercast.No wind66%30.16 "Hg10 mi
11:53 AM50 °FLight rain. Overcast.9 mph74%30.16 "Hg10 mi
10:53 AM48 °FMostly cloudy.No wind77%30.22 "Hg10 mi
9:53 AM49 °FOvercast.6 mph74%30.20 "Hg10 mi
8:53 AM47 °FScattered clouds.No wind80%30.21 "Hg10 mi
7:53 AM45 °FSunny.6 mph86%30.21 "Hg10 mi
6:53 AM44 °FPassing clouds.6 mph89%30.23 "Hg10 mi
Weather by CustomWeather, © 2016

See weather overviewHow to use our weather pages